#timestamp,LO_Frequency,Hit,StdDev 
1547172015.4,286047005.6,N
1547172035.2,286047003.1,N
1547172055.1,286047001.7,N
1547172056.0,286047001.7,N
1547172075.8,286047002.7,N
1547172095.6,286047000.3,N
1547172115.5,286047000.4,N
1547172135.3,286047004.3,N
1547172155.2,286047004.0,N
1547172175.9,286047004.3,N
1547172195.7,286047005.2,N
1547172215.6,286047003.9,N
1547172235.4,286047001.4,N
1547172285.3,286047001.6,E
1547172295.2,286047001.9,N
1547172315.0,286047002.4,P
1547172315.9,286047002.4,P
1547172335.8,286047002.4,Y
1547172355.6,286047001.1,P
1547172375.4,286047002.2,P
1547172395.3,286046999.3,N
1547172415.1,286046996.9,N
1547172435.9,286046999.1,N
1547172455.7,286046998.8,N
1547172475.5,286046999.2,N
1547172495.4,286046997.3,N
1547172515.2,286046998.4,N
1547172535.0,286046996.7,N
1547172535.9,286046996.7,N
1547172555.8,286046996.7,N
1547172575.6,286046998.6,N
1547172595.5,286046998.2,N
1547172615.3,286046999.8,N
1547172635.1,286046998.9,N
1547172655.9,286046999.2,N
1547172675.7,286046997.0,N
1547172695.5,286046998.7,N
1547172715.4,286047002.6,N
1547172735.2,286047002.2,N
1547172755.1,286047000.1,N
1547172756.0,286047000.1,N
1547172775.8,286046998.9,N
1547172795.6,286047001.4,N
1547172815.5,286047004.4,N
1547172835.3,286047003.7,N
1547172855.1,286047000.3,N
1547172875.9,286047001.0,N
1547172895.7,286047001.1,N
1547172915.6,286047000.1,N
1547172935.4,286046999.4,N
1547172955.2,286046998.4,N
1547172975.1,286046998.5,N
1547172976.0,286046998.5,N
1547172995.8,286046998.1,N
1547173015.7,286047000.8,N
1547173035.5,286046999.1,N
1547173055.3,286046998.8,N
1547173075.2,286046997.7,N
1547173095.0,286046996.6,N
1547173095.9,286046996.6,N
1547173115.8,286046997.7,N
1547173135.6,286046998.4,N
1547173155.4,286046998.5,N
1547173175.3,286046998.9,N
1547173195.1,286046997.6,N
1547173215.8,286046996.5,N
1547173235.7,286046997.9,N
1547173255.5,286046997.9,N
1547173275.4,286046995.0,N
1547173295.2,286046997.5,N
1547173315.0,286046997.7,N
1547173315.9,286046997.7,N
1547173335.8,286046998.0,N
1547173355.6,286046997.5,N
1547173375.4,286046995.4,N
1547173395.3,286046997.9,N
1547173415.1,286046997.5,N
1547173435.9,286046994.9,Y
1547173455.7,286046998.9,P
1547173475.5,286047003.6,P
1547173495.4,286047003.3,N
1547173515.2,286047001.7,N
1547173535.0,286047002.6,N
1547173535.9,286047002.6,N
1547173555.8,286047002.2,N
1547173575.6,286047002.8,N
1547173595.5,286047000.6,N
1547173615.3,286046998.5,N
1547173635.1,286047001.0,N
1547173655.9,286047001.6,N
1547173675.7,286047001.5,N
1547173695.5,286046999.9,N
1547173715.4,286047000.6,N
1547173735.2,286047000.7,N
1547173755.0,286047000.3,N
1547173756.0,286047000.3,N
1547173775.8,286047001.5,N
1547173795.6,286047000.4,N
1547173815.5,286047000.2,N
1547173835.3,286046999.8,N
1547173855.1,286047000.3,N
1547173875.9,286047003.0,N
1547173895.7,286047007.1,Y
1547173915.6,286047007.3,P
1547173935.4,286047005.5,N
1547173955.2,286047004.2,N
1547173975.1,286047003.0,N
1547173976.0,286047003.0,N
1547173995.8,286047001.9,N
1547174015.6,286047003.4,N
1547174035.5,286047003.7,N
1547174055.3,286047005.4,Y
1547174075.2,286046998.4,P
1547174095.9,286046998.8,N
1547174115.7,286046996.8,N
1547174135.6,286046998.4,N
1547174155.4,286046999.3,N
1547174175.2,286046998.3,N
1547174195.1,286047001.1,N
1547174196.0,286047001.1,N
1547174215.8,286046998.8,N
1547174235.7,286046998.4,N
1547174255.5,286046996.8,N
1547174275.3,286046996.5,N
1547174295.2,286047002.8,N
1547174315.9,286046999.0,N
1547174335.7,286046997.2,N
1547174355.6,286046997.8,N
1547174375.4,286046996.8,N
1547174395.2,286046999.0,N
1547174415.1,286046998.8,N
1547174416.0,286046998.8,N
1547174435.8,286046996.7,N
1547174455.7,286046997.6,N
1547174475.5,286046997.7,N
1547174495.3,286046997.8,N
1547174515.2,286046997.9,N
1547174535.0,286046995.3,N
1547174535.9,286046995.3,N
1547174555.7,286046996.8,N
1547174575.6,286046997.3,N
1547174595.4,286046999.1,N
1547174615.3,286046997.3,N
1547174635.1,286046997.7,N
1547174636.0,286046997.7,N
1547174655.8,286046995.3,Y
1547174675.7,286046994.9,P
1547174695.5,286046997.7,N
1547174715.4,286046998.8,N
1547174735.2,286047000.5,N
1547174755.0,286047005.5,Y
1547174755.9,286047005.5,P
1547174775.8,286047005.7,N
1547174795.6,286047003.4,N
1547174845.5,286047003.4,E
1547174855.4,286047002.1,N
1547174875.2,286047002.7,P
1547174895.1,286046999.8,N
1547174896.0,286046999.8,N
1547174915.8,286046999.4,N
1547174935.6,286046998.3,N
1547174955.5,286047000.7,N
1547174975.3,286046999.5,N
1547174995.1,286047000.9,N
1547175015.9,286046996.6,N
1547175035.7,286046997.7,N
1547175055.6,286046997.8,N
1547175075.4,286046995.2,N
1547175095.2,286046995.5,N
1547175115.1,286046999.1,N
1547175116.0,286046999.1,N
1547175135.8,286046999.0,N
1547175155.6,286046998.1,N
1547175175.5,286046999.9,N
1547175195.3,286047000.0,N
1547175215.2,286046998.8,N
1547175235.9,286046999.0,N
1547175255.7,286046997.7,N
1547175275.6,286046995.5,N
1547175295.4,286046997.0,N
1547175315.2,286046999.0,N
1547175335.1,286046997.2,N
1547175336.0,286046997.2,N
1547175355.8,286046995.3,N
1547175375.7,286046995.4,N
1547175395.5,286046994.9,N
1547175415.3,286046999.3,N
1547175435.2,286046998.8,N
1547175455.9,286046998.9,N
1547175475.7,286046996.8,N
1547175495.6,286046998.5,N
1547175515.4,286047001.0,N
1547175535.3,286046998.5,N
1547175555.1,286047001.6,N
1547175556.0,286047001.6,N
1547175575.8,286047003.8,N
1547175595.7,286047006.0,N
